Inquirer Daily News

Weather

Get conditions and forecasts for any City, State, ZIP code or Country:  
Northeast Philadelphia, PA
on Monday, December 31, 2012

Monday
Previous Day Next Day
Daily Summary
 ActualAverage (KTTN)Record (KTTN)
Temperature
Mean Temperature °F 32°F  
Max Temperature 42°F 40°F 63°F (1992)
Min Temperature 28°F 24°F -6°F (1917)
Degree Days
Heating Degree Days 32 33  
Month to date heating degree days 919  
Since 1 July heating degree days 1895  
Cooling Degree Days 0 0  
Month to date cooling degree days 0  
Year to date cooling degree days 965  
Moisture
Dew Point 21°F   
Average Humidity 59    
Maximum Humidity 67    
Minimum Humidity 50    
Precipitation
Precipitation 0.00 in 0.09 in 0.70 in (1906)
Month to date precipitation 3.70  
Year to date precipitation 46.44  
Wind
Wind Speed 10 mph   
Max Wind Speed 14 mph   
Max Gust Speed 18 mph   
Visibility 10 miles   
Events     

Key: T is trace of precipitation, MM is missing value
Source: NWS Daily Summary
Time(EST)TemperatureDew PointHumidity Pressure Visibility Wind DirectionWind SpeedGust SpeedPrecipitationEvents Conditions
12:54 AM 30.9°F 18.0°F 59% 30.25 in 10.0 miles WSW 8.1 mph - N/A   Overcast
1:54 AM 30.9°F 19.0°F 61% 30.26 in 10.0 miles West 4.6 mph - N/A   Overcast
2:54 AM 32.0°F 21.0°F 64% 30.27 in 10.0 miles WSW 11.5 mph - N/A   Overcast
3:54 AM 30.0°F 19.0°F 64% 30.26 in 10.0 miles West 10.4 mph - N/A   Clear
4:54 AM 28.9°F 19.0°F 67% 30.24 in 10.0 miles West 10.4 mph - N/A   Clear
5:54 AM 28.9°F 19.0°F 67% 30.25 in 10.0 miles WSW 10.4 mph - N/A   Clear
6:54 AM 28.9°F 19.0°F 67% 30.24 in 10.0 miles WSW 11.5 mph - N/A   Clear
7:54 AM 28.9°F 19.0°F 67% 30.23 in 10.0 miles WSW 9.2 mph - N/A   Clear
8:54 AM 30.0°F 19.9°F 66% 30.23 in 10.0 miles WSW 8.1 mph - N/A   Clear
9:54 AM 30.9°F 19.9°F 64% 30.24 in 10.0 miles WSW 8.1 mph - N/A   Clear
10:54 AM 33.1°F 19.9°F 59% 30.21 in 10.0 miles West 9.2 mph 18.4 mph N/A   Clear
11:54 AM 36.0°F 21.0°F 55% 30.18 in 10.0 miles West 13.8 mph - N/A   Clear
12:54 PM 37.0°F 21.0°F 52% 30.15 in 10.0 miles West 11.5 mph - N/A   Clear
1:54 PM 37.0°F 21.0°F 52% 30.11 in 10.0 miles WSW 9.2 mph - N/A   Clear
2:54 PM 37.0°F 19.9°F 50% 30.09 in 10.0 miles WSW 9.2 mph - N/A   Overcast
3:54 PM 37.0°F 21.0°F 52% 30.06 in 10.0 miles SW 9.2 mph - N/A   Overcast
4:54 PM 37.0°F 21.0°F 52% 30.05 in 10.0 miles SW 12.7 mph 18.4 mph N/A   Overcast
5:54 PM 37.0°F 21.9°F 54% 30.04 in 10.0 miles SW 13.8 mph - N/A   Overcast
6:54 PM 37.0°F 24.1°F 59% 30.03 in 10.0 miles WSW 9.2 mph - N/A   Overcast
7:54 PM 37.9°F 23.0°F 55% 29.99 in 10.0 miles SW 10.4 mph 18.4 mph N/A   Overcast
8:54 PM 39.0°F 24.1°F 55% 29.98 in 10.0 miles WSW 12.7 mph - N/A   Overcast
9:54 PM 39.2°F 24.8°F 56% 29.97 in 10.0 miles WSW 9.2 mph - N/A   Mostly Cloudy
10:54 PM 39.9°F 26.1°F 58% 29.96 in 10.0 miles WSW 9.2 mph - N/A   Mostly Cloudy
11:54 PM 42.8°F 26.6°F 53% 29.95 in 10.0 miles WSW 12.7 mph - N/A   Overcast
Astronomy
Sunrise:07:22 AM (EST) Moon Rise:08:12 PM (EST)
Sunset:04:44 PM (EST) Moon Set:09:02 AM (EST)
Moon Phase
Dec. 31 Jan. 04 Jan. 11 Jan. 18 Jan. 26

Copyright © 2014 The Weather Underground, Inc.